Simultaneous Nadir Overpasses (SNOs) Predictions

Prediction of SNOs near equator between AQUA and NPP Satellite Orbit:

Table of predicted SNOs near equator for the next 14.0 days since TLE Epoch: 9/2/2016
Index Date (AQUA) Time (AQUA) AQUA Lat,Lon Date (NPP) Time (NPP) NPP Lat,Lon Distance(km) Time Diff (sec)
1 09/04/2016 23:26:06 29.94,-152.48 09/04/2016 23:16:06 30.34,-152.71 49.32 600
2 09/05/2016 00:07:57 -2.70, 21.41 09/04/2016 23:58:55 -2.65, 21.30 12.88 542
3 09/05/2016 00:56:12 -1.87,-170.00 09/05/2016 00:48:26 -1.94,-170.37 42.46 466
4 09/05/2016 01:44:20 6.36, -1.38 09/05/2016 01:37:49 6.51, -2.02 71.95 391
5 09/07/2016 15:37:28 11.44, -32.25 09/07/2016 15:27:37 11.44, -32.24 1.24 591
6 09/07/2016 16:24:02 -1.26, 137.59 09/07/2016 16:15:24 -1.22, 137.40 21.76 518
7 09/07/2016 17:12:18 -3.25, -53.83 09/07/2016 17:04:55 -3.37, -54.28 51.71 443
8 09/07/2016 18:00:24 7.87, 114.82 09/07/2016 17:54:17 8.00, 114.10 80.81 367
9 09/10/2016 07:52:00 4.39, 85.15 09/10/2016 07:42:30 4.37, 85.14 2.64 570
10 09/10/2016 08:40:07 0.17,-106.22 09/10/2016 08:31:53 0.20,-106.50 31.22 494
11 09/10/2016 09:28:22 -4.74, 62.37 09/10/2016 09:21:23 -4.85, 61.83 60.78 419
12 09/10/2016 10:16:30 9.24,-129.01 09/10/2016 10:10:46 9.42,-129.80 89.66 344
13 09/12/2016 23:26:03 -30.00, 27.52 09/12/2016 23:16:03 -30.67, 27.23 79.53 600
14 09/13/2016 00:08:05 2.98,-158.67 09/12/2016 23:58:59 2.95,-158.76 10.62 546
15 09/13/2016 00:56:12 1.59, 9.96 09/13/2016 00:48:21 1.68, 9.61 40.47 471
16 09/13/2016 01:44:27 -6.15, 178.55 09/13/2016 01:37:52 -6.27, 177.93 69.98 395
17 09/13/2016 02:32:35 10.65, -12.82 09/13/2016 02:27:15 10.84, -13.70 98.42 320
18 09/15/2016 15:38:07 -14.16, 147.17 09/15/2016 15:28:13 -14.16, 147.17 0.14 594
19 09/15/2016 16:24:08 1.51, -42.48 09/15/2016 16:15:26 1.47, -42.65 19.98 522
20 09/15/2016 17:12:16 2.99, 126.14 09/15/2016 17:04:49 3.10, 125.70 49.84 447
21 09/15/2016 18:00:30 -7.61, -65.25 09/15/2016 17:54:19 -7.75, -65.96 79.06 371




NCC Satellite Simultaneous Nadir Overpasses (SNOs) Prediction Service
